Beaver, WV

12:01 AM EDT on September 30, 2016 (GMT -0400)
Raleigh County Memorial

Weather History for KBKW - April, 2012

Change the Weather History Date:

Tuesday, April 17, 2012

  Actual Average Record
Temperature  
Mean Temperature 58 °F 53 °F  
Max Temperature 64 °F 64 °F 84 °F (1976)
Min Temperature 51 °F 42 °F 21 °F (1962)
Degree Days  
Heating Degree Days 7 13  
Month to date heating degree days 209 256  
Since 1 July heating degree days 3948 4969  
Cooling Degree Days 0 0  
Month to date cooling degree days 12 0  
Year to date cooling degree days 25 1  
Growing Degree Days 6 (Base 50)    
Moisture  
Dew Point 40 °F    
Average Humidity 54    
Maximum Humidity 72    
Minimum Humidity 36    
Precipitation  
Precipitation T in 0.11 in 1.25 in (1910)
Month to date precipitation 0.57 1.84  
Year to date precipitation 11.81 10.98  
Snow  
Snow 0.00 in - - ()
Month to date snowfall 0.0  
Since 1 September snowfall 35.9  
Snow Depth 0.00 in    
Sea Level Pressure  
Sea Level Pressure 30.22 in    
Wind  
Wind Speed 6 mph (North)    
Max Wind Speed 13 mph    
Max Gust Speed 16 mph    
Visibility 10 miles    
Events      
T = Trace of Precipitation, MM = Missing Value Source: NWS Daily Summary

Daily Weather History Graph

Daily Weather History Graph

Search for Another Location

Airport or City:

Trip Planner

Search our weather history database for the weather conditions in past years. The results will help you decide how hot, cold, wet, or windy it might be!

Date:

Astronomy

Apr. 17, 2012 Rise Set
Actual Time 6:45 AM EDT 8:02 PM EDT
Civil Twilight 6:18 AM EDT 8:29 PM EDT
Nautical Twilight 5:46 AM EDT 9:02 PM EDT
Astronomical Twilight 5:12 AM EDT 9:36 PM EDT
Moon 4:39 AM EDT (4/17) 4:57 PM EDT (4/17)
Length of Visible Light 14h 11m
Length of Day
13h 16m
Waning Crescent, 12% of the Moon is Illuminated
Apr 17
Waning Crescent
Apr 21
New
Apr 29
First Quarter
May 5
Full
May 12
Last Quarter

Hourly Weather History & Observations

Time (EDT) Temp. Dew Point Humidity Pressure Visibility Wind Dir Wind Speed Gust Speed Precip Events Conditions
12:51 AM 64.0 °F 46.9 °F 54% 30.10 in 10.0 mi NW 6.9 mph - N/A   Mostly Cloudy
1:51 AM 61.0 °F 46.0 °F 58% 30.13 in 10.0 mi NNW 4.6 mph - N/A   Partly Cloudy
2:51 AM 59.0 °F 46.0 °F 62% 30.13 in 10.0 mi NNW 6.9 mph - N/A   Partly Cloudy
3:51 AM 55.9 °F 46.0 °F 69% 30.14 in 10.0 mi North 4.6 mph - N/A   Clear
4:51 AM 55.4 °F 44.6 °F 67% 30.23 in 10.0 mi NNW 8.1 mph - N/A   Clear
5:51 AM 53.1 °F 44.1 °F 71% 30.19 in 10.0 mi North 8.1 mph - N/A   Scattered Clouds
6:51 AM 51.1 °F 43.0 °F 74% 30.23 in 10.0 mi NNW 4.6 mph - N/A   Scattered Clouds
7:51 AM 52.0 °F 42.1 °F 69% 30.25 in 10.0 mi North 10.4 mph - N/A   Scattered Clouds
8:51 AM 52.0 °F 42.1 °F 69% 30.25 in 10.0 mi North 9.2 mph - N/A   Scattered Clouds
9:51 AM 53.1 °F 41.0 °F 64% 30.27 in 10.0 mi North 6.9 mph - N/A   Mostly Cloudy
10:51 AM 55.0 °F 39.9 °F 57% 30.28 in 10.0 mi North 9.2 mph - N/A   Overcast
11:51 AM 55.0 °F 39.9 °F 57% 30.27 in 10.0 mi NNW 5.8 mph - N/A   Overcast
12:51 PM 57.0 °F 39.9 °F 53% 30.26 in 10.0 mi NNE 4.6 mph - N/A   Overcast
1:51 PM 57.9 °F 39.0 °F 49% 30.27 in 10.0 mi NNW 8.1 mph - N/A   Overcast
2:51 PM 57.9 °F 37.9 °F 47% 30.27 in 10.0 mi North 9.2 mph - N/A   Overcast
3:51 PM 60.1 °F 37.9 °F 44% 30.26 in 10.0 mi NNW 8.1 mph - N/A   Overcast
4:51 PM 61.0 °F 36.0 °F 39% 30.24 in 10.0 mi North 6.9 mph - N/A   Overcast
5:51 PM 60.1 °F 34.0 °F 38% 30.24 in 10.0 mi North 6.9 mph - N/A   Overcast
6:51 PM 59.0 °F 35.1 °F 41% 30.24 in 10.0 mi NNE 3.5 mph - N/A   Partly Cloudy
7:51 PM 57.9 °F 37.0 °F 46% 30.23 in 10.0 mi NNE 3.5 mph - N/A   Mostly Cloudy
8:51 PM 55.9 °F 36.0 °F 47% 30.23 in 10.0 mi North 5.8 mph - N/A   Scattered Clouds
9:51 PM 55.9 °F 33.1 °F 42% 30.24 in 10.0 mi North 4.6 mph - N/A   Scattered Clouds
10:51 PM 55.0 °F 34.0 °F 45% 30.23 in 10.0 mi North 3.5 mph - N/A   Overcast
11:51 PM 54.0 °F 34.0 °F 47% 30.21 in 10.0 mi North 3.5 mph - N/A   Overcast